Location: Deuil
(48.9767°N, 2.3272°E)
Time: 16:29:43
(UTC+00:00)

N. Korean satellite - Pass Details

Date: 28 January 2022
Orbit: 437 x 477 km, 97.3° (Epoch: 27 May)

Event Time Altitude Azimuth Distance (km) Brightness Sun altitude
Rises 06:17:59 0° 359° (N) 2,614 10.1 -11.3°
Reaches altitude 10° 06:20:32 10° 341° (NNW) 1,725 9.0 -10.9°
Maximum altitude 06:23:08 19° 296° (WNW) 1,274 8.1 -10.5°
Drops below altitude 10° 06:25:44 10° 251° (WSW) 1,711 8.8 -10.1°
Enters shadow 06:27:45 - 235° (SW) 2,396 9.7 -9.8°
